Flag for U.S.A. Weather past 2 weeks in Hampton, Virginia, U.S.A.

Now
72 °F

Passing clouds.


Feels Like: 67 °F
Forecast: 77 / 87 °F
Wind: 1 mph from Northeast

Location: Langley Air Force Base

Current Time: Jul 6, 2015 at 3:21:13 AM

Latest Report: Jul 6, 2015 at 2:58 AM


Visibility: 10 mi

Pressure: 30.09 "Hg

Humidity: 95%

Dew point: 71 °F

Location of HamptonLocation

Historic Weather in Hampton — Graph

°F

Hampton temperature yesterday

Maximum temperature yesterday: 82 °F (at 2:58 PM)
Minimum temperature yesterday: 71 °F (at 5:58 AM)
Average temperature yesterday: 76 °F

Past Weeks' High & Low Weather Summary

 TemperatureHumidityPressure
High97 °F (Jun 23, 4:58 PM)100% (Jun 24, 2:03 AM)30.15 "Hg (Jun 24, 2:03 AM)
Low61 °F (Jun 29, 5:58 AM)44% (Jun 29, 9:58 AM)29.68 "Hg (Jun 28, 2:58 AM)
Average78 °F77%29.94 "Hg
* Reported Jun 21 1:58 AM — Jul 6 1:58 AM, Hampton, Weather by CustomWeather, © 2015

Note: Actual official high and low records may vary slightly from our data, if they occured in-between our weather recording intervals... More about our weather records

Advertising

Hampton weather history for previous 24 hours

 ConditionsComfort  
Time TempWeatherWind HumidityBarometerVisibility
1:58 AM
Mon, Jul 6
72 °FPartly cloudy.7 mph95%30.13 "Hg10 mi
1:02 AM73 °FFog.6 mph89%30.09 "Hg6 mi
12:58 AM72 °FLight rain. Fog.7 mph94%30.11 "Hg5 mi
11:58 PM
Sun, Jul 5
72 °FLight rain. Fog.3 mph93%30.13 "Hg3 mi
11:03 PM72 °FThunderstorms. Fog.12 mph94%30.11 "Hg4 mi
10:58 PM72 °FThunderstorms. Fog.10 mph93%30.14 "Hg2 mi
10:01 PM75 °FThunderstorms. Fog.8 mph100%30.12 "Hg3 mi
8:58 PM76 °FSunny.5 mph93%30.12 "Hg10 mi
7:58 PM76 °FLight rain. Fog.6 mph92%30.10 "Hg5 mi
6:58 PM77 °FPassing clouds.8 mph87%30.11 "Hg10 mi
5:58 PM78 °FScattered clouds.10 mph81%30.10 "Hg10 mi
4:58 PM78 °FSunny.10 mph81%30.10 "Hg10 mi
3:58 PM81 °FPassing clouds.13 mph74%30.12 "Hg10 mi
2:58 PM82 °FScattered clouds.13 mph72%30.13 "Hg9 mi
1:58 PM82 °FScattered clouds.8 mph75%30.13 "Hg9 mi
12:58 PM80 °FBroken clouds.9 mph78%30.14 "Hg9 mi
11:58 AM82 °FPassing clouds.9 mph76%30.15 "Hg9 mi
10:58 AM81 °FSunny.8 mph75%30.14 "Hg9 mi
9:58 AM79 °FScattered clouds.6 mph81%30.13 "Hg10 mi
8:58 AM78 °FScattered clouds.5 mph83%30.13 "Hg9 mi
7:58 AM75 °FSunny.2 mph91%30.11 "Hg10 mi
6:58 AM72 °FScattered clouds.2 mph97%30.10 "Hg8 mi
5:58 AM71 °FFog.2 mph97%30.07 "Hg3 mi
4:58 AM72 °FPassing clouds.3 mph97%30.06 "Hg9 mi
3:58 AM72 °FPassing clouds.2 mph96%30.04 "Hg10 mi
Weather by CustomWeather, © 2015

See weather overviewHow to use our weather pages